Regional Weather Roundup
Issued by NWS

Home | Current Version | Previous Version | Text Only | Print | Product List | Glossary Off
Versions: 1 2 3 4 5 6 7 8 9 10 11 12 13 14 15 16 17 18 19 20 21 22 23 24 25 26 27 28 29 30 31 32 33 34 35 36 37 38 39 40 41 42 43 44 45 46 47 48 49 50

000
ASUS43 KIND 061259
RWRIN

WEATHER ROUNDUP FOR INDIANA
NATIONAL WEATHER SERVICE INDIANAPOLIS IN
800 AM EST TUE DEC 06 2016

NOTE: "FAIR" INDICATES FEW OR NO CLOUDS BELOW 12,000 FEET WITH NO
SIGNIFICANT WEATHER AND/OR OBSTRUCTIONS TO VISIBILITY.

* - STATION DOES NOT REPORT WEATHER SUCH AS PRECIPITATION OR FOG.

+ - STATION NOT QUALITY CONTROLLED BY THE NATIONAL WEATHER SERVICE.
    USE DATA WITH CAUTION...ESPECIALLY DEWPOINT AND RELATIVE
    HUMIDITY OBSERVATIONS.

INZ001>003-010>013-019-020-061400-
NORTHWEST INDIANA

CITY           SKY/WX    TMP DP  RH WIND       PRES   REMARKS
GARY /AIRPORT/ MOCLDY    32  30  93 E6        29.79  WCI  26

$$

LMZ046-743>745-061400-
SOUTHERN LAKE MICHIGAN

STATION/POSITION TIME  TEMP    WIND        PRES    WAVE
                       AIR SEA DIR/SP/G            HT
                 (UTC) (F)     (DEG/KT/KT) (MB)    (FT)

$$

INZ004-005-014>016-021>024-061400-
NORTH CENTRAL INDIANA

CITY           SKY/WX    TMP DP  RH WIND       PRES   REMARKS
GOSHEN         MOCLDY    33  28  81 E7        29.77F WCI  27
SOUTH BEND     PTCLDY    32  29  88 E7        29.80S WCI  26

$$

INZ006>009-017-018-025>027-061400-
NORTHEAST INDIANA

CITY           SKY/WX    TMP DP  RH WIND       PRES   REMARKS
ANGOLA *+      CLEAR     34  21  60 E7        29.79S WCI  28
FORT WAYNE     CLOUDY    32  28  85 NE12      29.76F WCI  23
KENDALLVILLE + CLOUDY    33  29  87 E8        29.79R WCI  26

$$

INZ028-029-035-036-043>045-051>053-061400-
WEST CENTRAL INDIANA

CITY           SKY/WX    TMP DP  RH WIND       PRES   REMARKS
CRAWFORDSVL +  CLOUDY    35  35 100 N3        29.73S
GREENCASTLE +  CLOUDY    37  36  93 N3        29.72S
LAFAYETTE      CLOUDY    34  32  92 E7        29.75F WCI  28
TERRE HAUTE    LGT RAIN  39  34  82 NE6       29.72F

$$

INZ030>032-037>040-046>048-054>057-064-065-061400-
CENTRAL INDIANA

CITY           SKY/WX    TMP DP  RH WIND       PRES   REMARKS
COLUMBUS       LGT RAIN  37  37 100 N5        29.69F FOG
INDIANAPOLIS   CLOUDY    38  34  85 CALM      29.70F
-EAGLE CREEK   LGT RAIN  39  32  76 CALM      29.71S
KOKOMO +       CLOUDY    33  31  92 N7        29.75F WCI  27
SHELBYVILLE    LGT RAIN  38  34  85 NE8       29.68F

$$

INZ033-034-041-042-049-050-058-059-061400-
EAST CENTRAL INDIANA

CITY           SKY/WX    TMP DP  RH WIND       PRES   REMARKS
MUNCIE         LGT RAIN  35  31  85 E10       29.71F WCI  27

$$

INZ060-061-067>069-081>083-085>088-061400-
SOUTHWEST INDIANA

CITY           SKY/WX    TMP DP  RH WIND       PRES   REMARKS
EVANSVILLE     RAIN      42  40  92 N6        29.70R FOG
HUNTINGBURG *+ LGT RAIN  41  41 100 N7        29.68S FOG

$$

INZ062-063-066-070>080-084-089>092-061400-
SOUTH CENTRAL AND SOUTHEAST INDIANA

CITY           SKY/WX    TMP DP  RH WIND       PRES   REMARKS
BLOOMINGTON    LGT RAIN  38  36  92 NW3       29.69F FOG
MADISON *+     CLOUDY    39  37  93 NE6       29.67S
SEYMOUR +      RAIN      41  39  93 N3        29.68F

$$




USA.gov is the U.S. government's official web portal to all federal, state and local government web resources and services.